Regional Weather Roundup
Issued by NWS Grand Forks, ND

Home | Current Version | Previous Version | Text Only | Print | Product List | Glossary Off
Versions: 1 2 3 4 5 6 7 8 9 10 11 12 13 14 15 16 17 18 19 20 21 22 23 24 25 26 27 28 29 30 31 32 33 34 35 36 37 38 39 40 41 42 43 44 45 46 47 48 49 50

000
ASUS43 KFGF 162031
RWRFGF
PRAIRIE TO PINES  WEATHER ROUNDUP
NATIONAL WEATHER SERVICE EASTERN NORTH DAKOTA/GRAND FORKS ND
300 PM CDT TUE SEP 16 2014

 **SATELLITE DATA USED TO AUGMENT SKY COVER AT AUTOMATED STATIONS**
 *****  WEATHER ACROSS EASTERN NORTH DAKOTA  *****

CITY           SKY/WX    TMP DP  RH WIND       PRES   REMARKS
GRAND FORKS    MOSUNNY   73  41  31 SW6       29.95F
GRAND FRKS AFB SUNNY     74  42  30 W6        29.97F
GRAND FRKS NWS   N/A     72 N/A N/A MISG        N/A
DEVILS LAKE    SUNNY     72  41  33 SW7       29.95F
FARGO          SUNNY     71  40  32 VRB3      29.99F
WAHPETON ARPT  CLEAR     70  36  28 SW7G18    29.99F
$$

 ***** WEATHER ACROSS CENTRAL AND WESTERN NORTH DAKOTA  *****

CITY           SKY/WX    TMP DP  RH WIND       PRES   REMARKS
BISMARCK       SUNNY     73  47  39 E5        29.95F
MINOT          SUNNY     71  43  36 E7        29.94F
JAMESTOWN      SUNNY     68  45  43 SE3       29.97F
MINOT AFB      SUNNY     70  44  37 VRB2      29.94F
GARRISON         N/A     70  46  42 VRB3      29.95F
WILLISTON      SUNNY     72  33  24 E5        29.96F
DICKINSON      SUNNY     73  46  38 NE6       29.95F
HETTINGER      SUNNY     74  46  36 CALM      29.96F
$$

 *****  OTHER AIRPORT OBSERVATIONS IN OUR AREA  *****

CITY           SKY/WX    TMP DP  RH WIND       PRES   REMARKS
WALHALLA         N/A     72  41  33 SE5       29.93F
GRAFTON AIRPOR FAIR      73  41  31 W8        29.94F
VALLEY CITY AR FAIR      68  45  42 S8        29.98F
CANDO          FAIR      73  39  29 S7        29.95F
CAVALIER APRT  FAIR      73  45  35 E9        29.93F
GWINNER        CLEAR     72  48  43 SE13      29.98F
SHEYENNE NWR     N/A     73  43  33 SE6       29.95
ROLLA            N/A     72  37  28 NW8       29.96F
 ***** THE ABOVE OBSERVATIONS ARE NON NWS ARE NOT QUALITY
       CONTROLLED AND MAY MIS-REPORT RAIN FOR SNOW...
$$

  *****  WEATHER ACROSS NORTHERN MINNESOTA  *****

CITY           SKY/WX    TMP DP  RH WIND       PRES   REMARKS
FLAG ISLAND    MOSUNNY   59  52  77 S6        29.96F
WARROAD        MOSUNNY   57  48  72 CALM      29.99S
ROSEAU         PTSUNNY   63  48  59 CALM      29.98F
HALLOCK        MOSUNNY   70  41  35 CALM      29.94F
THF RVR FALLS  SUNNY     70  43  37 W7        29.97F
BAUDETTE       CLOUDY    57  46  66 CALM      29.99F
WASKISH        PTSUNNY   64  48  55 CALM      29.98F
CROOKSTON      SUNNY     72  43  35 SW8       29.97F
STEPHEN NDAWN    N/A     73  45  35 SW5         N/A
GREENBUSH NDAW   N/A     66  46  48 SE2         N/A
$$
  *****  WEATHER ACROSS CENTRAL AND WEST MINNESOTA  *****

CITY           SKY/WX    TMP DP  RH WIND       PRES   REMARKS
FOSSTON        SUNNY     72  46  40 SW7       30.00F
BEMIDJI        SUNNY     69  41  36 W7        30.00S
PARK RAPIDS    SUNNY     68  38  33 SW9       30.02F
ELBOW LAKE     FAIR      67  42  39 S8        30.02F
WADENA         NOT AVBL
DETROIT LAKES  SUNNY     66  37  34 S9        30.03F
MOORHEAD       SUNNY     70  27  19 SW8       30.00F
FERGUS FALLS   MOSUNNY   70  34  26 S8        30.01F
MORRIS MN      PTSUNNY   70  43  37 S8        30.01F
STAPLES        SUNNY     66  37  34 SW9       30.04S
$$
  *****  WEATHER ELSEWHERE ACROSS MINNESOTA  *****

CITY           SKY/WX    TMP DP  RH WIND       PRES   REMARKS
DULUTH         MOSUNNY   69  41  36 W17       30.01F
INTRNTL FALLS  CLOUDY    59  48  67 W3        29.99F
ELY            PTSUNNY   63  45  51 W8        29.97S
CLOQUET        SUNNY     66  36  32 W13G20    30.02F
WHEATON        SUNNY     68  43  40 S9        30.01F
BRAINERD       SUNNY     66  38  35 SW6       30.04F
HIBBING        PTSUNNY   67  43  41 W10G18    30.00F
ALEXANDRIA     SUNNY     65  42  43 S9        30.06F
SAINT CLOUD    SUNNY     69  40  34 SW10      30.06F
MINNEAPOLIS    MOSUNNY   64  41  42 SW3       30.09F
$$

  *****  WEATHER ACROSS SOUTH DAKOTA  *****

CITY           SKY/WX    TMP DP  RH WIND       PRES   REMARKS
SIOUX FALLS    PTSUNNY   66  48  52 S14       30.04F
BROOKINGS      NOT AVBL
WATERTOWN      SUNNY     68  48  48 S15       30.01F
HURON          SUNNY     72  51  47 S12G17    29.97F
SISSETON         N/A     70  46  42 S9        29.98F
ABERDEEN       SUNNY     69  50  50 S9        29.97F
MITCHELL       SUNNY     72  53  51 S15       29.98F
PIERRE         SUNNY     74  52  46 CALM      29.93F
MOBRIDGE       SUNNY     72  51  47 CALM      29.93F
RAPID CITY     SUNNY     78  44  29 MISG      29.99F
$$

  *****  SOME WEATHER IN NEARBY STATES *****

CITY           SKY/WX    TMP DP  RH WIND       PRES   REMARKS
GLASGOW MT     SUNNY     73  42  32 S6        29.94F
GREAT FALLS MT PTSUNNY   79  39  23 SW10      29.96F
CHEYENNE WY    SUNNY     80  29  15 N16G22    30.19F
SCOTTSBLUFF NE MOSUNNY   83  50  31 W10       30.05F
OMAHA NE       MOSUNNY   67  48  50 SE9       30.11F
DES MOINES IA  SUNNY     66  46  48 S9        30.13F
DAVENPORT IA   SUNNY     65  41  41 MISG      30.15F
CHICAGO IL     MOSUNNY   65  39  38 W8        30.13F
EAU CLAIRE WI  SUNNY     66  40  38 W8        30.10F
LA CROSSE WI   SUNNY     67  42  40 W9        30.12F
$$

  *****  SOME NATIONAL WEATHER *****

CITY           SKY/WX    TMP DP  RH WIND       PRES   REMARKS
LA GUARDIA NY  PTSUNNY   68  55  63 VRB5      29.96S
RALEIGH NC     PTSUNNY   82  62  50 NE7       29.98F
ATLANTA GA     CLOUDY    84  67  56 NW10      30.02F
NEW ORLEANS LA PTSUNNY   85  76  74 S16       29.99F HX  94
OKLAHOMA CITY  PTSUNNY   87  68  52 SE3       30.07F HX  90
ALBUQUERQUE NM CLOUDY    72  58  61 S6        30.25F
SALT LAKE CITY MOSUNNY   90  36  14 S12       30.04F
LOS ANGELES CA MOSUNNY   85  61  44 W10       29.75F
BOISE ID       SUNNY     87  48  25 VRB7      29.93F
SEATTLE WA     PTSUNNY   69  54  58 SW7       29.91F
$$

*** WEATHER ACROSS MANITOBA...SASKATCHEWAN AND ONTARIO ***
                ***ONTARIO***

CITY           SKY/WX    TMP DP  RH WIND       PRES   REMARKS
GERALDTON      PTSUNNY   43  37  81 N7        29.97
THUNDER BAY    PTSUNNY   59  48  67 NW7       29.96R
SIOUX LOOKOUT  PTSUNNY   48  37  66 N7        30.01F
TORONTO        PTSUNNY   63  41  45 NW13      30.04F
BIG TROUT LK   MOSUNNY   41  23  48 NW8G17    30.04F
PICKLE LAKE    MOSUNNY   43  23  45 NE7       30.03S
DRYDEN         PTSUNNY   55  43  62 NE8       30.00R
KENORA         CLOUDY    59  45  58 NE7       29.99
$$
                *** MANITOBA***

CITY           SKY/WX    TMP DP  RH WIND       PRES   REMARKS
BRANDON        MOSUNNY   70  46  43 S3        29.95F
DAUPHIN        CLOUDY    55  48  76 SE9       29.96F
ISLAND LAKE    CLOUDY    41  25  52 NE3       30.09F
PILOT MOUND      N/A     72  36  26 W7          N/A
THE PAS        LGT RAIN  36  34  93 E10G18    30.02F FOG
THOMPSON       PTSUNNY   41  19  42 E6        30.11F
WINNIPEG       PTSUNNY   64  48  55 NE12      29.96F
LYNN LAKE      PTSUNNY   39  18  41 MISG      30.11S
CHURCHILL      FLURRIES  37  32  81 N20G26    30.08F
GILLAM         CLOUDY    37  23  56 NW15      30.11S
$$
                ***SASKATCHEWAN***

CITY           SKY/WX    TMP DP  RH WIND       PRES   REMARKS
ESTEVAN        MOSUNNY   72  43  35 SW8       29.95F
KINDERSLEY     MOSUNNY   75  43  31 W5        29.89
LLOYDMINSTER   MOSUNNY   73  41  31 W6        29.87F
PRINCE ALBERT  PTSUNNY   61  48  63 SE3       29.90S
REGINA         MOSUNNY   73  45  35 VRB7      29.91F
YORKTON        PTSUNNY   73  41  31 W15G22    29.89F
N. BATTLEFORD  SUNNY     73  43  33 W7        29.89F
LA RONGE       CLOUDY    39  37  93 E12G17    30.00R
SASKATOON      MOSUNNY   75  45  33 SW6       29.89F
SWIFT CURRENT  SUNNY     75  41  29 SW12      29.90F
$$
NOTE: THESE ARE AUTOMATED STATIONS WITH LIMITED QUALITY CONTROL
      "FAIR" INDICATES FEW OR NO CLOUDS BELOW 12,000 FEET WITH NO
      SIGNIFICANT WEATHER AND/OR OBSTRUCTIONS TO VISIBILITY.
      SKY/WX - SKY CONDITION AND SIGNIFICANT WEATHER.
      TMP - AIR TEMPERATURE.    DP   - DEWPOINT TEMPERATURE.
      RH  - RELATIVE HUMIDITY.  PRES - PRESSURE.
      HX  - HEAT INDEX.         WCI  - WIND CHILL INDEX.
$


USA.gov is the U.S. government's official web portal to all federal, state and local government web resources and services.